Regional Weather Roundup
Issued by NWS Portland, ME

Current Version | Previous Version | Graphics & Text | Print | Product List | Glossary On
Versions: 1 2 3 4 5 6 7 8 9 10 11 12 13 14 15 16 17 18 19 20 21 22 23 24 25 26 27 28 29 30 31 32 33 34 35 36 37 38 39 40 41 42 43 44 45 46 47 48 49 50
000
ASUS41 KGYX 042310
RWRGYX
WEATHER ROUNDUP FOR MAINE AND NEW HAMPSHIRE
NATIONAL WEATHER SERVICE GRAY ME
600 PM EST WED MAR 04 2015

MEZ002-005-006-010-012-015-018-020-021-024-026-027-029-050000-
MAINE

CITY           SKY/WX    TMP DP  RH WIND       PRES   REMARKS
PORTLAND       CLOUDY    43  26  51 SW7       29.70S
WISCASSET      NOT AVBL
FRYEBURG       NOT AVBL
AUGUSTA        NOT AVBL
BANGOR         NOT AVBL
GREENVILLE       N/A     28  16  60 CALM      29.59S
MILLINOCKET    NOT AVBL
HOULTON        NOT AVBL
PRESQUE ISLE   NOT AVBL
FRENCHVILLE    NOT AVBL
CARIBOU        NOT AVBL
$$

NHZ002-005-008-009-011-012-014-050000-
NEW HAMPSHIRE

CITY           SKY/WX    TMP DP  RH WIND       PRES   REMARKS
PORTSMOUTH     CLOUDY    41  25  52 SW10      29.72R
ROCHESTER      CLOUDY    41  24  51 VRB3      29.72R
NASHUA         CLOUDY    40  26  57 W7        29.79R
MANCHESTER     NOT AVBL
CONCORD        CLOUDY    40  25  55 SW6       29.76R
BERLIN         NOT AVBL
WHITEFIELD     NOT AVBL
JAFFREY        NOT AVBL
LEBANON        NOT AVBL
MT WASHINGTON  FOG       12  12 100 W59         N/A  VSB 0   WCI -15
$$

VTZ005-007-008-050000-
VERMONT

CITY           SKY/WX    TMP DP  RH WIND       PRES   REMARKS
ST JOHNSBURY     N/A     38  22  52 MISG      29.70R
MONTPELIER     CLOUDY    34  19  54 W9G23     29.75R
$$

MAZ007-012-024-CTZ003-RIZ002-NYZ038-NYZ072-050000-
SOUTHERN NEW ENGLAND AND NY

CITY           SKY/WX    TMP DP  RH WIND       PRES   REMARKS
PROVIDENCE     CLOUDY    39  32  76 S6        29.82F
HARTFORD       CLOUDY    41  31  67 S3        29.84R
NEW YORK CITY  LGT RAIN  44  39  82 SW12      29.87R
$$

ANZ081-ANZ082-ANZ150-NHZ014-MEZ023>029-050000-
COASTAL MARINE OBSERVATIONS

STATION/POSITION TIME  TEMP    WIND        PRES    WAVE
                       AIR SEA DIR/SP/G            HT/PER
                 (UTC) (F)     (DEG/KT/KT) (MB)    (FT/S)
WELLS            2200   44     280/  4/  6 1005.6R
JEFFREYS LEDGE   2221      40                N/A     5/ 8
CASHES LEDGE BUO 2150   41 38              1005.5    8/ 8
$$

.............KEY..............
   WCI - WIND CHILL
   TC  - TEMPERATURE IN CELSIUS
   VSB - VISIBILITY IN MILES
   HX  - HEAT INDEX
   FAIR- INDICATES FEW OR NO CLOUDS BELOW 12,000 FT, WITH NO
         SIGNIFICANT WEATHER AND/OR OBSTRUCTIONS TO VISIBILITY.




USA.gov is the U.S. government's official web portal to all federal, state and local government web resources and services.